Date,TemperatureHighF,TemperatureAvgF,TemperatureLowF,DewpointHighF,DewpointAvgF,DewpointLowF,HumidityHigh,HumidityAvg,HumidityLow,PressureMaxIn,PressureMinIn,WindSpeedMaxMPH,WindSpeedAvgMPH,GustSpeedMaxMPH,PrecipitationSumIn
2013-1-8,66.7,66.7,66.7,50.0,50.0,50.0,55,55,55,30.57,30.57,0,0,0,0.00
2013-1-18,74.1,48.3,25.0,47.0,20.7,-99.9,90,49,37,30.53,0.00,0,-115,1,0.03
2013-1-19,56.2,34.7,21.5,31.0,25.5,20.0,96,73,31,30.52,30.19,2,0,5,0.02
2013-1-20,64.8,47.1,35.2,36.0,31.7,27.0,88,59,30,30.19,30.00,6,1,10,0.00
2013-1-21,60.5,42.6,26.0,33.0,26.9,18.0,94,59,30,30.11,29.89,7,1,11,0.00
2013-1-22,39.5,33.2,25.4,19.0,6.0,-2.0,49,33,18,30.30,29.98,8,2,11,0.00
2013-1-23,42.2,28.1,15.2,17.0,9.7,2.0,79,49,29,30.41,30.09,5,0,10,0.00
2013-1-24,39.5,31.6,25.5,24.0,11.7,1.0,73,46,26,30.53,30.00,11,2,14,0.00
2013-1-25,26.6,23.3,18.5,24.0,14.8,3.0,93,72,40,30.56,30.15,3,0,6,0.00
2013-1-26,41.3,30.0,24.2,33.0,27.4,22.0,97,90,68,30.43,30.13,3,0,4,0.01
2013-1-27,41.1,31.1,20.8,30.0,25.5,19.0,97,82,53,30.64,30.43,2,0,4,0.04
2013-1-28,51.0,41.7,31.0,47.0,36.1,27.0,95,81,64,30.53,30.25,2,0,6,0.06
2013-1-29,73.0,56.8,43.0,57.0,50.9,42.0,98,82,55,30.26,30.07,7,1,10,0.00
2013-1-30,72.6,66.4,57.8,64.0,61.5,56.0,95,84,71,30.07,29.40,6,2,19,0.22
2013-1-31,59.7,45.2,29.0,55.0,29.5,19.0,92,57,30,30.03,29.48,14,4,21,0.08
2013-2-1,39.1,33.9,24.5,27.0,12.4,1.0,78,44,22,30.40,29.93,11,2,22,0.00
2013-2-2,46.1,32.2,15.0,36.0,13.7,5.0,86,51,25,30.44,30.05,7,1,10,0.00
2013-2-3,49.9,40.2,28.0,36.0,28.9,23.0,94,67,41,30.05,29.87,8,1,11,0.00
2013-2-4,49.0,36.1,23.4,27.0,22.9,19.0,89,62,35,30.18,30.01,4,0,7,0.00
2013-2-5,62.3,46.4,36.0,35.0,31.8,28.0,78,59,33,30.03,29.89,8,1,12,0.00
2013-2-6,62.9,46.3,28.0,35.0,27.8,18.0,96,56,18,30.28,29.98,5,1,10,0.00
2013-2-7,46.1,41.7,36.2,42.0,36.4,27.0,96,82,60,30.34,29.99,6,2,9,0.20
2013-2-8,55.1,45.1,37.4,46.0,39.3,29.0,96,81,52,30.08,29.84,8,2,11,0.42
2013-2-9,52.9,38.4,26.2,29.0,22.1,15.0,91,58,23,30.38,30.08,7,1,11,0.00
2013-2-10,54.8,38.4,22.7,40.0,24.1,20.0,94,62,26,30.52,30.22,5,0,6,0.05
2013-2-11,62.4,55.6,42.7,60.0,53.7,40.0,98,93,87,30.22,29.93,6,1,11,0.06
2013-2-12,61.0,52.2,45.8,54.0,36.0,26.0,97,59,26,30.10,29.91,7,2,10,0.00
2013-2-13,47.3,45.1,42.0,46.0,43.1,35.0,97,92,64,29.95,29.64,7,1,10,0.03
2013-2-14,51.6,39.5,28.1,36.0,31.9,27.0,98,77,46,30.09,29.86,3,0,6,0.00
2013-2-15,62.9,43.0,26.1,40.0,31.2,25.0,97,69,29,30.13,29.94,4,0,8,0.00
2013-2-16,46.0,35.8,29.3,35.0,31.4,24.0,97,85,66,29.98,29.84,7,2,9,0.23
2013-2-17,38.1,28.7,20.3,23.0,13.5,6.0,81,57,27,30.31,29.95,12,2,16,0.00
2013-2-18,52.6,33.6,14.7,26.0,17.7,12.0,90,58,26,30.45,30.28,3,0,6,0.01
2013-2-19,50.3,40.7,28.5,49.0,37.5,25.0,97,88,66,30.28,29.88,4,1,10,0.14
2013-2-20,53.3,40.8,29.4,39.0,19.7,12.0,97,47,22,30.15,29.99,6,1,9,0.00
2013-2-21,55.5,40.4,22.3,23.0,17.7,12.0,84,44,21,30.26,30.14,3,0,8,0.00
2013-2-22,44.1,35.5,32.8,35.0,32.6,21.0,97,89,40,30.37,30.15,4,1,7,0.39
2013-2-23,42.5,39.2,35.4,42.0,38.5,35.0,98,97,95,30.13,29.84,4,1,6,0.73
2013-2-24,62.4,49.3,39.6,45.0,37.6,24.0,98,69,28,30.04,29.83,8,1,10,0.03
2013-2-25,42.9,38.0,34.0,28.0,23.7,20.0,69,57,47,30.26,30.05,8,2,8,0.00
2013-2-26,56.9,44.8,34.4,56.0,41.5,25.0,98,89,61,30.15,29.57,9,2,10,0.83
2013-2-27,60.3,48.0,38.5,44.0,39.8,36.0,98,76,45,29.81,29.64,6,1,10,0.00
2013-2-28,49.7,40.7,32.4,39.0,31.1,25.0,97,72,39,29.87,29.71,8,1,13,0.00
2013-3-1,47.6,38.5,26.9,31.0,27.1,24.0,90,66,44,29.93,29.86,6,2,10,0.00
2013-3-2,47.6,37.5,28.1,28.0,25.0,19.0,89,63,42,29.95,29.83,6,1,9,0.00
2013-3-3,45.2,34.7,26.0,22.0,18.7,17.0,75,53,38,30.00,29.87,6,2,12,0.00
2013-3-4,50.8,35.2,21.6,19.0,15.7,13.0,77,48,23,30.15,30.00,5,1,11,0.00
2013-3-5,46.4,41.4,32.3,45.0,33.4,18.0,97,76,45,30.11,29.57,2,0,5,0.28
2013-3-6,48.0,42.1,36.7,47.0,31.3,24.0,98,68,46,30.05,29.53,17,4,24,0.02
2013-3-7,51.8,42.0,32.4,30.0,27.9,24.0,80,59,41,30.25,30.05,6,2,11,0.00
2013-3-8,55.3,43.6,32.1,26.0,24.2,22.0,73,49,29,30.31,30.17,8,3,20,0.00
2013-3-9,62.4,45.5,32.9,32.0,27.6,25.0,80,54,26,30.36,30.24,5,1,9,0.00
2013-3-10,68.6,48.1,28.4,36.0,27.5,23.0,94,53,20,30.35,30.22,4,0,7,0.00
2013-3-11,68.6,53.4,33.6,53.0,42.3,24.0,88,67,45,30.26,29.94,4,1,8,0.00
2013-3-12,70.8,61.2,49.7,63.0,52.2,31.0,97,75,40,29.95,29.75,11,2,14,0.55
2013-3-13,56.5,46.4,31.8,34.0,25.7,19.0,91,48,25,30.14,29.95,12,3,16,0.00
2013-3-14,53.0,39.9,26.5,22.0,18.3,16.0,70,44,26,30.27,30.13,7,2,12,0.00
2013-3-15,62.0,44.2,24.3,35.0,26.4,19.0,82,54,29,30.23,29.94,7,1,11,0.00
2013-3-16,79.6,62.6,46.3,48.0,43.0,34.0,70,51,31,29.93,29.68,8,1,14,0.00
2013-3-17,61.2,52.4,42.3,52.0,44.4,38.0,92,75,59,30.16,29.85,9,2,12,0.00
2013-3-18,42.8,40.2,37.9,41.0,38.9,37.0,97,95,88,30.22,29.87,7,2,9,0.47
2013-3-19,66.3,51.5,40.1,46.0,33.5,15.0,98,61,18,30.02,29.84,10,3,17,0.00
2013-3-20,56.3,46.7,35.2,26.0,15.8,8.0,66,31,20,30.14,29.79,7,1,9,0.00
2013-3-21,45.2,38.6,30.0,29.0,17.5,9.0,82,45,26,30.00,29.75,11,2,17,0.00
2013-3-22,52.3,37.0,20.3,24.0,14.5,10.0,72,43,22,30.12,29.99,6,1,8,0.00
2013-3-23,53.9,43.4,33.9,31.0,26.0,22.0,82,53,34,30.08,29.92,3,0,4,0.00
2013-3-24,40.9,37.6,30.8,38.0,35.1,28.0,96,91,80,29.95,29.59,8,2,12,0.57
2013-3-25,48.0,40.3,35.6,37.0,30.2,22.0,97,71,39,29.84,29.59,12,2,22,0.01
2013-3-26,47.6,40.9,29.8,28.0,25.9,23.0,81,57,44,30.13,29.84,6,2,13,0.00
2013-3-27,50.5,40.9,27.2,27.0,23.2,19.0,87,52,31,30.25,30.14,11,2,16,0.00
2013-3-28,55.5,43.0,30.6,27.0,23.2,22.0,70,48,28,30.31,30.17,8,2,15,0.00
2013-3-29,59.3,44.1,26.2,30.0,25.3,22.0,88,53,25,30.36,30.20,5,1,11,0.00
2013-3-30,67.5,52.7,38.9,43.0,37.0,28.0,81,58,38,30.27,30.09,5,0,6,0.00
2013-3-31,69.0,56.3,46.5,57.0,50.5,43.0,97,82,60,30.11,29.81,8,1,13,0.36
2013-4-1,72.4,60.2,52.1,54.0,45.6,38.0,98,65,29,29.95,29.82,9,2,14,0.03
2013-4-2,60.9,48.7,32.8,37.0,30.0,25.0,88,52,26,30.18,29.96,6,2,13,0.00
2013-4-3,59.7,50.2,42.0,33.0,22.3,18.0,71,35,22,30.31,30.14,7,2,10,0.00
2013-4-4,46.5,41.8,38.5,40.0,32.8,23.0,96,73,46,30.37,29.94,8,2,11,0.83
2013-4-5,62.2,47.0,38.0,49.0,42.2,37.0,97,85,57,30.02,29.89,4,1,7,0.00
2013-4-6,65.4,53.4,39.8,40.0,32.2,25.0,96,49,26,30.28,30.03,6,1,10,0.00
2013-4-7,73.9,55.7,33.2,46.0,39.0,31.0,94,58,31,30.30,30.11,3,0,11,0.00
2013-4-8,80.0,65.0,50.3,57.0,52.4,48.0,97,67,39,30.19,30.05,5,1,10,0.00
2013-4-9,85.9,70.7,56.3,59.0,56.6,54.0,96,65,34,30.19,30.06,4,1,11,0.00
2013-4-10,88.6,72.2,59.0,62.0,58.2,56.0,94,65,34,30.11,29.94,4,1,10,0.00
2013-4-11,82.4,71.5,60.8,66.0,60.7,57.0,93,71,45,30.00,29.79,4,1,13,0.00
2013-4-12,81.8,71.3,63.7,70.0,62.8,47.0,96,77,47,29.81,29.61,5,1,14,0.53
2013-4-13,75.5,63.1,47.6,46.0,41.0,37.0,80,47,26,30.00,29.77,5,1,9,0.00
2013-4-14,81.6,64.4,41.8,53.0,43.9,38.0,94,54,22,30.11,30.01,2,0,7,0.00
2013-4-15,72.2,64.4,58.4,59.0,56.3,51.0,93,76,59,30.20,30.00,4,0,6,0.01
2013-4-16,77.3,65.9,58.1,61.0,58.5,56.0,94,79,52,30.30,30.20,2,0,4,0.00
2013-4-17,81.8,67.7,55.3,66.0,60.5,53.0,98,80,54,30.25,30.10,3,0,6,0.00
2013-4-18,80.3,69.3,57.9,64.0,59.9,56.0,95,74,50,30.20,30.03,2,0,5,0.00
2013-4-19,83.3,70.3,64.3,68.0,65.2,61.0,97,85,57,30.04,29.71,7,1,19,1.01
2013-4-20,64.3,54.7,42.6,64.0,39.3,32.0,97,60,33,30.28,29.83,5,2,10,0.06
2013-4-21,61.2,50.7,37.1,41.0,39.0,36.0,95,67,43,30.49,30.28,7,1,8,0.00
2013-4-22,60.4,50.0,38.7,46.0,37.4,30.0,89,64,41,30.48,30.26,10,2,10,0.00
2013-4-23,66.5,53.8,46.4,52.0,47.0,44.0,94,79,51,30.28,30.13,4,1,6,0.01
2013-4-24,77.1,60.8,44.3,58.0,52.1,43.0,98,76,48,30.18,29.98,6,1,9,0.00
2013-4-25,71.2,59.8,46.0,56.0,47.1,40.0,89,65,40,30.27,30.02,5,1,7,0.00
2013-4-26,72.5,57.2,42.6,50.0,42.4,34.0,95,64,26,30.45,30.27,5,0,5,0.00
2013-4-27,73.5,59.8,49.6,54.0,48.4,42.0,92,69,35,30.40,30.27,2,0,3,0.00
2013-4-28,60.3,56.3,52.9,56.0,52.9,49.0,97,88,71,30.28,30.10,2,0,2,1.01
2013-4-29,71.1,62.1,55.6,65.0,60.0,55.0,98,93,74,30.11,29.96,1,0,2,0.82
2013-4-30,66.0,61.1,56.6,61.0,58.7,54.0,98,92,81,30.17,30.00,3,1,5,0.00
2013-5-1,60.8,58.6,56.6,58.0,56.5,55.0,96,92,88,30.31,30.16,5,1,8,0.00
2013-5-2,62.6,59.0,56.1,58.0,56.0,54.0,95,90,83,30.33,30.26,3,1,6,0.00
2013-5-3,67.2,58.4,49.8,55.0,50.7,43.0,96,77,52,30.27,30.16,4,1,8,0.00
2013-5-4,64.6,55.9,49.7,52.0,48.4,44.0,90,76,61,30.20,30.07,6,2,10,0.00
2013-5-5,59.7,55.4,50.3,57.0,51.5,46.0,91,86,77,30.09,29.96,5,2,9,0.00
2013-5-6,66.4,60.2,55.2,63.0,58.6,54.0,98,94,87,29.99,29.82,4,1,6,1.14
2013-5-7,71.2,57.6,48.6,58.0,52.5,48.0,98,85,46,29.95,29.86,3,0,6,0.00
2013-5-8,72.3,61.3,52.6,61.0,55.9,51.0,98,84,57,30.02,29.93,4,0,7,0.02
2013-5-9,81.3,65.8,50.5,62.0,57.1,50.0,99,77,42,30.07,29.98,4,1,9,0.00
2013-5-10,87.1,70.3,54.5,65.0,59.7,53.0,96,73,39,30.07,29.94,4,0,11,0.00
2013-5-11,83.1,72.3,65.8,67.0,62.9,58.0,91,73,50,29.96,29.79,6,1,11,0.01
2013-5-12,73.5,65.4,50.7,63.0,50.8,38.0,91,62,36,30.03,29.79,9,3,12,0.00
2013-5-13,67.2,54.5,42.5,45.0,38.7,34.0,88,59,30,30.18,30.03,9,2,12,0.00
2013-5-14,73.1,55.5,35.2,46.0,39.9,34.0,96,61,30,30.28,30.08,6,1,7,0.00
2013-5-15,88.8,68.1,49.9,64.0,54.9,43.0,89,65,40,30.09,29.91,5,1,10,0.00
2013-5-16,85.9,73.5,62.8,65.0,61.3,58.0,89,68,39,29.99,29.90,5,1,8,0.00
2013-5-17,89.2,74.3,60.9,66.0,63.4,59.0,95,72,38,30.08,29.98,3,0,5,0.00
2013-5-18,79.2,69.3,60.8,69.0,64.5,59.0,97,85,61,30.15,30.06,3,1,8,0.36
2013-5-19,80.2,69.5,64.5,72.0,67.1,64.0,98,92,70,30.15,30.05,3,0,6,0.34
2013-5-20,76.6,69.1,66.2,73.0,68.1,66.0,99,96,83,30.11,30.03,3,0,4,1.25
2013-5-21,85.7,72.7,67.1,76.0,69.6,66.0,99,91,70,30.06,29.95,4,0,6,0.01
2013-5-22,85.4,73.3,67.0,72.0,68.7,66.0,99,86,60,30.04,29.91,5,0,7,0.00
2013-5-23,82.1,73.0,65.5,71.0,68.6,64.0,98,87,65,29.95,29.82,4,0,8,0.07
2013-5-24,70.7,64.0,51.3,63.0,52.1,38.0,98,69,35,30.19,29.82,13,4,21,0.00
2013-5-25,74.7,57.5,38.6,53.0,42.2,37.0,97,62,30,30.30,30.14,7,1,12,0.00
2013-5-26,75.5,61.1,51.3,58.0,46.8,38.0,95,61,40,30.30,30.18,4,1,9,0.00
2013-5-27,84.1,64.7,46.5,61.0,53.0,46.0,98,71,32,30.30,30.16,3,0,5,0.00
2013-5-28,85.2,71.4,58.0,69.0,62.8,55.0,96,76,55,30.26,30.15,5,0,7,0.00
2013-5-29,86.7,72.7,58.6,69.0,63.9,58.0,98,76,49,30.25,30.15,5,0,10,0.00
2013-5-30,89.6,73.3,59.1,69.0,64.4,58.0,98,77,40,30.28,30.17,3,0,7,0.00
2013-5-31,89.1,75.4,63.2,70.0,66.9,62.0,98,77,49,30.23,30.10,3,0,9,0.00
2013-6-1,89.5,76.2,65.2,70.0,67.0,64.0,97,75,46,30.15,30.02,5,1,8,0.00
2013-6-2,87.9,76.2,65.4,70.0,67.5,64.0,96,76,52,30.06,29.90,4,1,8,0.05
2013-6-3,83.6,73.4,65.6,75.0,70.2,65.0,98,90,66,29.96,29.82,5,1,14,0.41
2013-6-4,80.8,71.0,64.2,68.0,65.4,63.0,98,83,58,30.09,29.93,7,1,11,0.00
2013-6-5,81.7,71.0,63.0,66.0,62.7,60.0,96,76,56,30.14,30.01,2,0,6,0.00
2013-6-6,76.3,70.2,64.3,73.0,67.5,60.0,98,91,75,30.03,29.82,2,0,5,0.29
2013-6-7,74.8,70.0,68.7,71.0,69.2,68.0,98,97,88,29.85,29.52,8,2,15,2.66
2013-6-8,86.1,73.4,66.2,73.0,69.1,65.0,99,88,59,30.09,29.81,3,0,11,0.09
2013-6-9,89.3,75.2,64.2,75.0,70.0,63.0,97,85,62,30.16,30.05,2,0,4,0.00
2013-6-10,83.4,74.5,71.1,77.0,72.0,69.0,96,92,75,30.10,29.89,5,1,10,0.80
2013-6-11,87.9,75.0,68.2,71.0,67.8,66.0,95,80,50,29.96,29.90,6,1,9,0.00
2013-6-12,91.8,77.4,63.2,78.0,70.1,62.0,97,80,55,29.98,29.86,3,0,9,0.00
2013-6-13,94.9,78.4,66.5,78.0,71.6,65.0,96,82,48,29.86,29.61,6,1,37,0.14
2013-6-14,79.8,70.0,60.4,66.0,60.2,57.0,94,73,48,30.02,29.73,9,3,15,0.00
2013-6-15,86.6,70.7,55.8,68.0,61.4,55.0,97,76,45,30.14,30.02,4,0,8,0.00
2013-6-16,87.6,73.6,60.7,72.0,65.2,57.0,91,76,55,30.14,30.01,4,1,11,0.00
2013-6-17,89.0,75.5,68.6,75.0,69.4,65.0,91,82,61,30.04,29.93,4,0,5,0.00
2013-6-18,85.9,74.2,68.3,76.0,70.1,67.0,97,87,66,29.98,29.76,16,1,20,1.59
2013-6-19,81.3,72.4,64.3,69.0,66.8,64.0,98,84,61,30.11,29.88,5,1,10,0.00
2013-6-20,82.2,72.3,64.9,67.0,64.0,61.0,96,77,52,30.24,30.12,8,1,10,0.00
2013-6-21,82.9,70.1,55.5,66.0,59.2,54.0,93,71,41,30.26,30.18,6,1,11,0.00
2013-6-22,79.1,73.0,65.9,72.0,69.2,63.0,94,88,78,30.21,30.11,6,1,9,0.00
2013-6-23,87.0,75.2,67.4,76.0,71.3,66.0,97,88,66,30.21,30.12,2,0,4,0.00
2013-6-24,87.4,76.5,68.6,78.0,72.0,67.0,97,86,67,30.21,30.09,2,0,6,0.00
2013-6-25,89.8,75.3,67.7,77.0,70.7,67.0,97,86,61,30.13,30.00,7,0,8,0.00
2013-6-26,91.1,75.8,67.9,77.0,71.5,67.0,97,87,63,30.04,29.89,12,1,18,0.22
2013-6-27,90.1,76.4,66.5,79.0,72.0,66.0,98,87,62,29.94,29.72,5,1,9,0.00
2013-6-28,91.6,78.1,70.7,77.0,72.5,70.0,96,84,57,29.75,29.58,9,1,16,1.12
2013-6-29,88.6,75.7,68.6,77.0,71.8,68.0,97,88,63,29.73,29.61,3,0,7,0.62
2013-6-30,86.3,74.1,67.8,78.0,71.8,66.0,98,93,75,29.86,29.70,11,0,11,2.47
2013-7-1,84.7,74.1,68.5,77.0,72.0,68.0,98,93,76,29.99,29.84,3,0,5,0.92
2013-7-2,75.8,73.0,71.4,74.0,71.8,70.0,97,96,93,30.18,29.99,2,0,4,0.33
2013-7-3,85.7,76.0,71.0,79.0,74.0,70.0,98,93,79,30.25,30.15,3,0,8,1.62
2013-7-4,88.6,78.4,70.7,79.0,73.9,70.0,98,87,65,30.27,30.17,3,0,5,0.00
2013-7-5,89.9,78.6,69.6,78.0,73.7,69.0,97,86,64,30.27,30.16,2,0,6,0.00
2013-7-6,88.3,77.3,71.1,78.0,73.3,69.0,97,88,67,30.25,30.12,2,0,4,0.00
2013-7-7,89.7,77.1,66.0,78.0,72.5,65.0,97,86,66,30.19,30.06,4,0,5,0.00
2013-7-8,91.0,78.2,71.2,77.0,73.0,70.0,96,85,57,30.17,30.09,4,0,6,0.00
2013-7-9,89.7,76.6,70.2,79.0,73.3,69.0,97,89,69,30.16,30.06,3,0,6,0.01
2013-7-10,90.8,77.8,70.5,79.0,73.9,69.0,97,88,63,30.11,29.94,3,0,7,0.00
2013-7-11,82.9,75.0,71.9,77.0,72.7,71.0,97,92,78,29.98,29.88,2,0,6,0.58
2013-7-12,77.5,72.9,70.6,73.0,71.0,69.0,97,93,85,30.02,29.87,6,1,9,0.05
2013-7-13,78.5,73.6,70.6,76.0,71.8,69.0,96,94,91,30.16,30.01,4,1,9,0.25
2013-7-14,88.6,77.2,70.4,77.0,73.1,70.0,97,88,63,30.29,30.17,3,0,7,0.00
2013-7-15,91.4,77.1,67.0,77.0,71.9,66.0,98,85,55,30.32,30.24,4,1,8,0.00
2013-7-16,95.7,80.0,66.8,79.0,72.8,66.0,98,81,50,30.29,30.17,4,0,5,0.18
2013-7-17,93.6,82.1,74.4,80.0,76.1,73.0,97,83,53,30.21,30.10,5,1,7,0.00
2013-7-18,96.9,80.8,72.9,81.0,75.7,72.0,97,86,58,30.14,30.04,4,0,11,0.97
2013-7-19,91.7,80.0,73.8,81.0,75.5,72.0,98,87,64,30.10,29.98,3,0,6,0.01
2013-7-20,90.4,78.5,73.1,79.0,74.8,72.0,97,89,67,30.03,29.92,5,1,8,0.19
2013-7-21,90.5,76.8,71.1,80.0,73.7,70.0,98,91,68,30.00,29.90,3,0,7,0.07
2013-7-22,89.9,77.5,69.2,79.0,73.3,68.0,98,88,63,29.95,29.83,6,0,8,0.00
2013-7-23,91.4,79.2,72.4,77.0,73.6,71.0,96,84,61,29.85,29.73,6,1,9,0.00
2013-7-24,95.0,79.0,69.7,78.0,72.2,69.0,97,82,47,29.85,29.73,8,0,12,0.39
2013-7-25,80.9,72.9,67.1,72.0,69.1,66.0,97,88,71,30.03,29.82,7,2,11,0.00
2013-7-26,88.0,73.4,61.1,71.0,66.5,60.0,98,81,51,30.12,30.02,3,0,3,0.00
2013-7-27,85.9,72.4,64.3,76.0,68.9,64.0,98,90,63,30.06,29.93,5,0,8,0.51
2013-7-28,88.2,75.7,66.7,77.0,71.7,66.0,98,88,65,30.01,29.92,3,0,6,0.09
2013-7-29,85.9,75.1,67.5,72.0,68.8,66.0,98,82,56,30.15,29.99,7,1,8,0.02
2013-7-30,89.3,73.4,60.2,75.0,66.7,59.0,97,81,48,30.22,30.13,4,0,8,0.00
2013-7-31,84.2,75.5,69.5,76.0,72.3,68.0,97,90,76,30.15,30.00,3,0,8,0.31
2013-8-1,87.3,74.0,69.9,78.0,71.9,69.0,98,93,70,30.01,29.87,3,0,8,0.12
2013-8-2,90.0,76.8,66.5,77.0,71.1,66.0,98,84,59,30.02,29.91,4,1,6,0.00
2013-8-3,90.3,78.4,71.1,80.0,74.2,70.0,98,88,58,30.02,29.90,6,0,8,0.01
2013-8-4,83.8,75.2,65.6,73.0,69.1,64.0,97,83,54,30.03,29.89,8,2,11,0.00
2013-8-5,84.6,72.6,61.8,71.0,66.4,61.0,98,83,56,30.09,30.00,4,0,5,0.00
2013-8-6,81.8,72.6,66.2,73.0,68.1,65.0,97,86,66,30.07,30.00,6,0,8,0.18
2013-8-7,88.1,76.0,68.1,76.0,71.0,67.0,96,85,63,30.11,30.02,2,0,5,0.00
2013-8-8,91.3,77.9,68.4,77.0,72.5,68.0,97,85,58,30.07,29.99,3,0,6,0.00
2013-8-9,91.1,79.3,72.6,78.0,74.5,71.0,97,86,64,30.06,29.98,6,1,10,0.00
2013-8-10,94.6,78.8,72.2,80.0,74.4,71.0,97,88,60,30.10,30.00,12,1,15,0.27
2013-8-11,95.5,79.4,70.2,80.0,74.4,69.0,98,86,56,30.11,30.00,3,0,6,0.00
2013-8-12,93.2,80.4,71.8,78.0,74.1,71.0,97,83,51,30.04,29.93,4,1,8,0.01
2013-8-13,89.9,77.1,69.5,80.0,73.7,69.0,98,90,63,29.96,29.77,4,0,14,0.87
2013-8-14,75.4,71.4,63.9,72.0,67.2,58.0,97,87,76,30.09,29.83,7,2,9,0.00
2013-8-15,76.1,65.6,60.1,64.0,60.0,58.0,96,83,55,30.17,30.07,5,1,9,0.00
2013-8-16,69.7,64.4,58.2,64.0,61.0,57.0,97,89,78,30.18,30.10,4,1,6,0.00
2013-8-17,70.8,66.6,62.9,70.0,65.3,61.0,97,95,91,30.18,30.11,5,2,8,0.20
2013-8-18,81.8,72.9,67.6,73.0,69.5,66.0,98,89,72,30.21,30.12,5,1,8,0.01
2013-8-19,74.2,69.8,66.7,72.0,68.4,66.0,97,95,91,30.19,30.10,4,0,4,0.25
2013-8-20,84.1,75.0,68.6,76.0,71.8,68.0,98,90,69,30.19,30.11,2,0,3,0.00
2013-8-21,88.1,75.3,69.8,78.0,72.6,69.0,98,91,68,30.23,30.10,10,0,17,0.01
2013-8-22,90.3,77.7,69.9,79.0,72.7,69.0,98,86,59,30.15,30.00,4,0,7,0.00
2013-8-23,89.6,76.6,67.0,77.0,71.5,66.0,98,85,57,30.07,29.93,10,1,13,0.00
2013-8-24,83.0,71.5,62.0,66.0,62.7,59.0,95,76,46,30.30,30.07,9,2,11,0.00
2013-8-25,79.7,67.1,56.2,65.0,59.6,55.0,98,79,45,30.40,30.29,8,1,10,0.00
2013-8-26,85.6,66.6,50.6,66.0,58.6,50.0,98,79,43,30.33,30.13,4,0,7,0.00
2013-8-27,89.8,73.2,59.7,76.0,66.8,58.0,96,82,51,30.14,29.97,6,0,7,0.00
2013-8-28,86.4,76.2,68.2,78.0,73.0,67.0,98,90,69,29.99,29.88,2,0,4,0.00
2013-8-29,86.4,78.9,71.5,75.0,72.9,70.0,95,82,64,30.00,29.85,10,2,12,0.00
2013-8-30,90.2,74.6,65.3,70.0,67.7,65.0,98,81,46,30.06,29.95,5,1,8,0.00
2013-8-31,90.0,75.2,63.8,75.0,69.9,63.0,97,85,58,29.98,29.86,4,0,6,0.00
2013-9-1,91.9,77.2,69.5,80.0,72.9,69.0,97,87,59,29.91,29.77,6,1,14,0.50
2013-9-2,88.4,76.6,68.8,78.0,72.8,68.0,98,89,64,29.90,29.80,3,0,5,0.00
2013-9-3,88.4,77.8,70.4,78.0,73.3,69.0,97,87,60,29.93,29.80,3,0,7,0.00
2013-9-4,88.2,74.3,65.1,75.0,69.4,63.0,97,85,60,30.08,29.94,5,1,7,0.00
2013-9-5,87.1,73.0,62.6,71.0,64.9,60.0,98,79,41,30.10,30.03,5,1,11,0.00
2013-9-6,82.3,71.1,62.1,65.0,61.5,58.0,95,73,48,30.18,30.08,7,2,12,0.00
2013-9-7,83.9,68.7,55.7,69.0,62.5,55.0,98,82,55,30.14,29.98,5,0,5,0.00
2013-9-8,87.8,72.5,60.9,70.0,63.5,59.0,98,77,40,29.98,29.91,5,1,8,0.00
2013-9-9,88.7,73.9,61.5,73.0,67.1,60.0,98,81,50,30.15,29.99,5,0,6,0.00
2013-9-10,92.0,75.9,63.8,73.0,67.9,63.0,98,79,43,30.24,30.14,3,0,6,0.00
2013-9-11,89.4,74.7,63.9,74.0,68.5,63.0,97,82,52,30.21,30.08,2,0,6,0.00
2013-9-12,93.1,76.2,67.4,74.0,69.8,66.0,95,82,52,30.08,29.81,5,0,9,0.00
2013-9-13,84.6,73.9,66.9,69.0,63.2,54.0,97,72,46,29.89,29.76,8,2,14,0.00
2013-9-14,77.9,65.9,55.1,57.0,53.1,50.0,95,65,43,30.13,29.89,8,2,13,0.00
2013-9-15,82.3,66.7,50.5,65.0,58.5,49.0,98,78,50,30.25,30.12,2,0,5,0.00
2013-9-16,84.4,73.3,62.0,73.0,64.7,60.0,97,77,45,30.18,30.04,6,1,11,0.28
2013-9-17,76.8,68.3,58.9,61.0,55.8,51.0,85,66,42,30.31,30.18,8,2,15,0.00
2013-9-18,75.3,63.3,49.2,55.0,51.2,47.0,95,68,39,30.31,30.18,5,1,11,0.00
2013-9-19,79.8,69.4,50.0,65.0,60.5,49.0,97,75,53,30.21,30.08,2,0,5,0.01
2013-9-20,70.7,66.0,63.6,68.0,64.4,62.0,97,94,85,30.09,29.97,1,0,3,0.07
2013-9-21,80.1,69.9,64.0,72.0,67.6,63.0,97,92,76,29.97,29.73,6,0,7,1.04
2013-9-22,75.6,66.4,55.8,64.0,61.5,55.0,97,85,60,29.90,29.70,15,3,16,1.72
2013-9-23,74.6,60.7,51.7,58.0,54.1,51.0,97,81,52,30.08,29.91,7,1,9,0.00
2013-9-24,77.0,61.0,48.7,63.0,55.9,48.0,98,85,56,30.12,29.96,3,0,5,0.00
2013-9-25,71.9,61.7,49.9,65.0,57.5,49.0,98,87,66,29.97,29.88,2,0,5,0.00
2013-9-26,76.3,65.1,55.7,61.0,58.1,54.0,96,80,48,30.04,29.88,7,2,10,0.00
2013-9-27,72.7,61.6,53.9,61.0,56.3,52.0,97,84,58,30.19,30.04,6,1,11,0.00
2013-9-28,71.6,60.3,50.3,58.0,54.2,50.0,97,82,55,30.27,30.17,6,2,13,0.00
2013-9-29,72.9,59.4,50.1,59.0,53.5,49.0,97,83,50,30.18,30.04,7,2,8,0.00
2013-9-30,73.7,58.7,47.4,61.0,53.9,47.0,98,86,54,30.12,30.01,4,0,6,0.04
2013-10-1,83.8,63.3,48.3,66.0,57.2,48.0,98,83,48,30.14,30.03,4,0,7,0.00
2013-10-2,84.2,67.3,54.8,67.0,60.4,54.0,98,82,47,30.15,30.05,3,0,6,0.00
2013-10-3,84.4,68.3,56.8,69.0,62.9,56.0,98,85,53,30.14,30.06,2,0,6,0.00
2013-10-4,87.5,69.4,58.1,69.0,63.9,57.0,98,85,49,30.15,30.05,4,0,6,0.00
2013-10-5,89.0,71.4,58.9,70.0,65.1,58.0,98,83,47,30.12,30.03,2,0,4,0.00
2013-10-6,84.7,70.7,58.5,72.0,66.9,58.0,98,88,63,30.08,29.93,2,0,5,0.00
2013-10-7,72.9,69.7,64.1,72.0,68.6,60.0,98,96,86,29.98,29.85,8,1,11,1.38
2013-10-8,64.0,59.9,53.7,60.0,51.5,48.0,93,74,65,30.20,29.98,13,4,22,0.03
2013-10-9,62.6,58.0,54.0,57.0,53.7,51.0,96,85,79,30.19,30.10,12,5,16,0.10
2013-10-10,60.2,56.7,53.2,59.0,55.6,52.0,97,96,94,30.09,29.95,12,4,14,0.23
2013-10-11,68.4,63.0,59.2,64.0,60.5,58.0,97,91,80,29.98,29.92,5,2,9,0.00
2013-10-12,68.0,63.6,59.0,65.0,61.8,58.0,97,94,86,30.08,29.97,5,2,8,0.00
2013-10-13,67.2,63.9,61.4,64.0,62.2,61.0,97,94,89,30.20,30.08,10,3,11,0.02
2013-10-14,64.8,61.6,56.5,62.0,60.3,56.0,98,95,90,30.24,30.18,8,3,15,0.07
2013-10-15,71.3,61.5,52.7,63.0,57.7,52.0,98,88,68,30.20,30.06,8,2,11,0.00
2013-10-16,70.5,64.0,59.4,64.0,61.5,59.0,97,91,78,30.07,29.96,3,0,4,0.00
2013-10-17,75.6,65.4,58.7,68.0,63.0,58.0,98,92,72,29.98,29.86,5,0,7,0.00
2013-10-18,66.7,62.0,56.2,64.0,56.4,51.0,98,83,58,30.05,29.88,6,1,9,0.00
2013-10-19,71.1,62.2,57.9,66.0,60.0,57.0,97,92,80,29.98,29.83,2,0,5,0.00
2013-10-20,63.5,53.0,40.8,57.0,46.6,40.0,98,81,47,30.13,29.91,6,1,11,0.00
2013-10-21,67.2,49.8,35.1,54.0,45.4,34.0,99,87,53,30.19,30.02,3,0,4,0.00
2013-10-22,64.2,56.1,49.5,61.0,54.6,48.0,97,95,86,30.03,29.82,2,0,3,0.00
2013-10-23,66.8,57.5,45.9,58.0,47.6,33.0,98,73,38,30.02,29.70,8,2,16,0.00
2013-10-24,58.2,44.6,34.1,41.0,36.2,32.0,95,75,44,30.20,30.02,8,1,10,0.00
2013-10-25,54.2,44.7,34.4,41.0,33.8,29.0,93,68,39,30.39,30.20,10,2,14,0.00
2013-10-26,59.5,40.9,26.1,39.0,32.5,25.0,97,76,39,30.39,30.10,4,0,10,0.00
2013-10-27,69.3,51.6,37.2,50.0,41.9,36.0,96,73,42,30.16,30.06,6,1,9,0.00
2013-10-28,62.8,51.9,41.4,57.0,49.5,40.0,97,92,77,30.28,30.14,1,0,3,0.00
2013-10-29,70.3,55.8,46.1,59.0,52.3,45.0,98,89,64,30.36,30.27,3,0,5,0.00
2013-10-30,75.1,59.1,48.2,63.0,55.2,47.0,98,88,61,30.32,30.17,4,0,7,0.00
2013-10-31,74.8,62.5,52.1,64.0,57.6,51.0,98,85,60,30.20,29.94,3,0,10,0.00
2013-11-1,72.2,67.1,59.3,67.0,64.7,58.0,97,92,80,29.93,29.68,5,1,11,0.90
2013-11-2,69.4,60.3,50.7,58.0,51.8,43.0,98,76,45,29.95,29.71,6,1,16,0.00
2013-11-3,61.9,49.7,38.2,42.0,39.0,37.0,96,69,43,30.38,29.95,12,2,13,0.00
2013-11-4,54.6,44.1,37.0,40.0,35.5,32.0,94,73,44,30.57,30.38,8,2,13,0.00
2013-11-5,55.8,47.7,37.7,50.0,41.8,33.0,87,80,68,30.57,30.44,7,3,11,0.00
2013-11-6,70.7,55.2,45.2,57.0,50.7,44.0,97,86,61,30.44,30.13,5,1,7,0.00
2013-11-7,69.3,59.4,46.4,62.0,53.0,34.0,98,81,54,30.11,29.93,9,2,13,0.01
2013-11-8,56.1,43.6,30.1,34.0,30.7,26.0,94,64,32,30.34,30.12,12,2,15,0.00
2013-11-9,59.0,42.1,26.3,38.0,32.4,25.0,97,72,37,30.41,30.21,3,0,8,0.00
2013-11-10,72.4,52.4,34.9,43.0,35.8,28.0,93,59,26,30.25,30.08,7,1,12,0.00
2013-11-11,59.4,43.6,29.6,35.0,31.0,27.0,91,64,35,30.38,30.16,6,1,9,0.00
2013-11-12,60.7,41.7,31.9,40.0,34.1,27.0,95,77,41,30.44,30.09,13,2,25,0.01
2013-11-13,43.8,32.0,23.9,26.0,20.2,18.0,85,64,36,30.57,30.44,10,2,15,0.00
2013-11-14,57.7,35.7,21.2,28.0,23.5,19.0,92,66,29,30.52,30.37,3,0,7,0.00
2013-11-15,60.7,44.0,27.0,52.0,37.2,24.0,96,79,45,30.40,30.23,3,0,3,0.00
2013-11-16,66.5,55.5,46.7,58.0,52.5,46.0,97,90,73,30.29,30.21,5,1,7,0.00
2013-11-17,70.9,61.0,53.3,65.0,58.4,53.0,98,92,70,30.22,29.92,1,0,5,0.12
2013-11-18,75.6,65.6,54.3,67.0,54.1,32.0,97,70,37,29.97,29.80,12,2,17,0.04
2013-11-19,55.1,47.9,42.1,32.0,29.6,27.0,67,50,36,30.32,29.97,9,3,16,0.00
2013-11-20,52.4,44.0,36.7,38.0,32.6,28.0,85,65,52,30.47,30.32,11,2,12,0.00
2013-11-21,59.6,49.3,41.2,48.0,42.8,37.0,87,78,65,30.52,30.40,5,2,9,0.00
2013-11-22,71.1,58.5,46.0,61.0,53.7,44.0,95,85,70,30.41,30.11,6,1,11,0.01
2013-11-23,60.5,55.0,40.8,59.0,44.2,22.0,97,70,38,30.20,30.06,7,2,11,0.01
2013-11-24,41.3,31.7,21.1,23.0,10.5,4.0,66,43,26,30.59,30.20,12,4,22,0.00
2013-11-25,42.9,28.8,14.6,22.0,13.0,9.0,89,55,26,30.64,30.41,6,0,6,0.00
2013-11-26,64.2,44.8,34.8,64.0,37.4,17.0,98,78,47,30.41,29.60,6,1,10,0.99
2013-11-27,47.0,39.0,25.6,46.0,35.9,20.0,98,89,65,30.20,29.52,10,3,17,0.57
2013-11-28,43.4,29.3,18.5,26.0,20.8,17.0,94,73,42,30.52,30.20,6,1,11,0.00
2013-11-29,49.3,35.0,20.9,28.0,25.0,20.0,96,70,41,30.66,30.51,4,1,9,0.00
2013-11-30,46.8,34.9,27.3,34.0,28.4,23.0,94,78,60,30.67,30.40,7,2,12,0.00
2013-12-1,59.0,39.9,25.5,42.0,33.7,24.0,97,81,49,30.39,30.05,3,0,4,0.00
2013-12-2,58.8,44.8,35.9,47.0,40.6,35.0,97,86,61,30.05,29.84,2,0,5,0.00
2013-12-3,55.0,43.6,30.9,48.0,41.1,30.0,98,91,75,30.02,29.89,1,0,3,0.00
2013-12-4,64.8,55.1,49.2,59.0,52.8,47.0,97,92,79,30.11,30.01,3,0,4,0.00
2013-12-5,66.4,60.6,53.9,64.0,59.7,53.0,98,97,91,30.15,30.05,4,0,10,0.01
2013-12-6,77.3,69.4,64.2,66.0,63.8,62.0,95,83,65,30.09,29.98,8,2,15,0.00
2013-12-7,68.3,49.8,42.9,65.0,46.0,35.0,97,87,72,30.45,30.01,11,3,18,0.22
2013-12-8,42.9,35.7,33.0,36.0,32.7,30.0,97,89,71,30.49,30.32,9,2,13,0.09
2013-12-9,45.0,39.3,33.6,45.0,38.8,33.0,98,98,97,30.31,30.09,3,0,3,0.23
2013-12-10,48.1,42.8,26.4,46.0,40.6,25.0,98,92,62,30.35,29.94,8,2,13,0.47
2013-12-11,48.9,37.8,27.5,32.0,27.6,24.0,95,69,46,30.50,30.32,3,0,6,0.00
2013-12-12,43.2,32.7,23.9,28.0,22.3,17.0,95,68,38,30.46,30.30,9,1,15,0.00
2013-12-13,50.9,33.3,19.8,31.0,22.7,16.0,91,68,36,30.44,30.30,6,0,8,0.00
2013-12-14,45.2,39.9,33.9,43.0,37.3,30.0,97,91,64,30.33,29.81,6,1,10,1.01
2013-12-15,52.8,42.4,32.2,45.0,36.3,28.0,98,81,51,30.10,29.73,10,1,13,0.05
2013-12-16,56.5,37.7,26.4,38.0,31.7,25.0,96,81,49,30.22,30.10,2,0,5,0.00
2013-12-17,61.4,44.6,29.8,41.0,35.3,29.0,97,73,40,30.16,29.92,15,1,19,0.00
2013-12-18,50.3,39.6,28.3,32.0,22.2,18.0,77,52,30,30.32,30.05,10,2,12,0.00
2013-12-19,61.8,42.3,26.7,32.0,26.5,21.0,82,57,25,30.36,30.25,5,1,12,0.00
2013-12-20,65.7,51.0,38.3,54.0,44.3,32.0,92,78,61,30.28,30.14,5,1,10,0.00
2013-12-21,72.6,57.9,43.1,66.0,54.7,42.0,98,89,67,30.18,30.06,6,1,9,0.00
2013-12-22,77.1,70.2,63.5,68.0,65.4,62.0,97,85,66,30.11,30.03,7,2,18,0.17
2013-12-23,66.4,59.8,46.4,66.0,58.6,40.0,98,96,77,30.16,29.99,12,2,27,2.16
2013-12-24,46.2,40.4,28.9,40.0,28.6,16.0,79,64,48,30.49,30.13,11,4,18,0.00
2013-12-25,39.4,27.8,21.2,20.0,14.9,12.0,90,60,35,30.59,30.44,6,1,8,0.00
2013-12-26,51.7,35.7,24.0,37.0,28.5,21.0,94,77,40,30.44,30.29,4,0,5,0.05
2013-12-27,50.8,35.5,25.7,29.0,23.6,20.0,90,65,36,30.50,30.39,3,1,7,0.00
2013-12-28,57.7,38.7,21.6,40.0,29.5,20.0,96,74,35,30.45,30.18,2,0,4,0.00
2013-12-29,57.8,47.6,42.2,57.0,46.0,35.0,98,94,61,30.17,29.73,7,1,12,2.14
2013-12-30,53.4,43.6,34.1,46.0,40.4,34.0,99,89,65,30.16,29.94,4,0,7,0.01
2013-12-31,50.0,40.7,30.4,38.0,31.0,24.0,95,71,36,30.38,30.14,6,1,11,0.00
2014-1-1,50.0,36.5,27.4,32.0,29.1,25.0,95,77,42,30.46,30.18,2,0,5,0.00
2014-1-2,47.7,41.9,34.1,45.0,39.1,31.0,97,90,80,30.17,29.61,6,0,13,0.31